Location: *
(48.8667°N, 2.3331°E)
Time: 13:25:54
(UTC+00:00)

Cosmos 1825 Rocket - Pass Details

Date: 09 April 2020
Orbit: 604 x 631 km, 82.5° (Epoch: 02 June)

Event Time Altitude Azimuth Distance (km) Brightness Sun altitude
Rises 19:02:14 0° 350° (N) 2,907 7.4 -5.3°
Reaches altitude 10° 19:04:29 10° 351° (N) 1,992 6.6 -5.6°
Maximum altitude 19:08:54 86° 79° (E) 622 3.6 -6.3°
Drops below altitude 10° 19:13:15 10° 170° (S) 1,959 5.8 -7.0°
Sets 19:15:27 0° 171° (S) 2,854 6.7 -7.3°
